Regional Weather Roundup
Issued by NWS Albany, NY

Home | Current Version | Previous Version | Text Only | Print | Product List | Glossary On
Versions: 1 2 3 4 5 6 7 8 9 10 11 12 13 14 15 16 17 18 19 20 21 22 23 24 25 26 27
000
ASUS41 KALY 270410
RWRALY

NEW YORK STATE HOURLY WEATHER ROUNDUP
NATIONAL WEATHER SERVICE ALBANY NY
1100 PM EST SUN FEB 26 2017

NOTE: "FAIR" INDICATES FEW OR NO CLOUDS BELOW 12,000 FEET WITH NO
SIGNIFICANT WEATHER AND/OR NO OBSTRUCTIONS TO VISIBILITY.

NYZ032-033-038>043-046>054-057>066-NYZ062>081-082-084-270500-
EAST


CITY           SKY/WX    TMP DP  RH WIND       PRES   REMARKS
ALBANY         FAIR      29  19  66 S5        30.18R WCI  24
GLENS FALLS    FAIR      28  19  69 S6        30.15R WCI  22
POUGHKEEPSIE   FAIR      28  18  66 SW3       30.22R
NEWBURGH       CLEAR     30  19  64 W8        30.22R WCI  23
MONTGOMERY     FAIR      27  20  75 SW3       30.21R
WHITE PLAINS   FAIR      32  15  49 W3        30.22R
ISLIP          FAIR      32  18  56 SW3       30.24R
NEW YORK CITY  FAIR      39  15  37 W15       30.25R WCI  31
CENTRAL PARK   FAIR      37  15  40 W8        30.27R WCI  31
$$

NYZ005>009-017-018-044>046-055-056-270500-
CENTRAL


CITY           SKY/WX    TMP DP  RH WIND       PRES   REMARKS
FULTON         FAIR      28  20  71 SE3       30.10F
SYRACUSE       CLOUDY    32  17  54 SW13      30.11S WCI  22
ROME           CLOUDY    28  21  75 E6        30.15S WCI  22
ELMIRA         FAIR      30  15  53 SW5       30.14S WCI  25
BINGHAMTON     FAIR      25  14  63 SW9       30.11R WCI  15
MONTICELLO     FAIR     N/A N/A N/A SW3       30.17S
$$

NYZ026>034-041>043-087-270500-
NORTH


CITY           SKY/WX    TMP DP  RH WIND       PRES   REMARKS
WATERTOWN      MOCLDY    31  21  66 S12       30.07F WCI  22
FORT DRUM      NOT AVBL
OGDENSBURG     LGT SNOW  32  26  77 SW16G23   30.04R WCI  22
MASSENA        CLOUDY    31  22  69 SW17      30.04S WCI  19
SARANAC LAKE   FAIR      20  17  88 SW12      29.99R WCI   8
PLATTSBURGH    FAIR      28  16  60 S6        30.06R WCI  22
$$

NYZ001>004-010>016-019>021-085-270500-
WEST


CITY           SKY/WX    TMP DP  RH WIND       PRES   REMARKS
NIAGARA FALLS  MOCLDY    38  21  50 SW21G28   30.06S WCI  28
BUFFALO        MOCLDY    34  17  50 SW15      30.07S WCI  24
DUNKIRK        FAIR      36  18  48 S18G32    30.10S WCI  26
JAMESTOWN      FAIR      30  16  55 SW15      30.09R WCI  19
WELLSVILLE     FAIR      29  14  53 SW12G23   30.09R WCI  19
ROCHESTER      MOCLDY    34  18  52 SW13      30.09S WCI  25
PENN YAN       FAIR      32  16  51 SW7       30.12R WCI  26
$$

             KEY
       WCI = WIND CHILL INDEX
       VSB = VISIBILITY
       HX  = HEAT INDEX
$$




USA.gov is the U.S. government's official web portal to all federal, state and local government web resources and services.